{"data":{"norad_id":64217,"epoch":"2026-05-23T03:52:03.017856Z","epoch_age_seconds":224000,"freshness":"STALE","line1":"1 64217U 25117Q   26143.16114604  .00025999  00000+0  88685-3 0  9996","line2":"2 64217  53.1597  53.9741 0001179  86.9517 273.1619 15.30200733 55929","mean_motion":15.30200733,"eccentricity":0.0001179,"inclination_deg":53.1597,"raan_deg":53.9741,"arg_perigee_deg":86.9517,"mean_anomaly_deg":273.1619,"bstar":0.00088685,"rev_number":5592,"period_min":94.105300627901,"perigee_km":474.40487086337,"apogee_km":476.02089076527,"semimajor_km":6853.3498808143,"source":"CELESTRAK","updated_at":"2026-05-25T13:38:20.320025Z"}}